{"data":{"norad_id":40021,"epoch":"2026-09-16T20:44:11.096448Z","epoch_age_seconds":329133,"freshness":"STALE","line1":"1 40021U 14033M   26259.86401732  .05638238  28638-5  12995-2 0  9998","line2":"2 40021  98.0058 334.1636 0011785 272.4633  87.5310 16.29776824670227","mean_motion":16.29776824,"eccentricity":0.0011785,"inclination_deg":98.0058,"raan_deg":334.1636,"arg_perigee_deg":272.4633,"mean_anomaly_deg":87.531,"bstar":0.0012995,"rev_number":67022,"period_min":88.355655743452,"perigee_km":185.39537333753,"apogee_km":200.88387233756,"semimajor_km":6571.2766228375,"source":"CELESTRAK","updated_at":"2026-09-17T09:00:45.682845Z"}}